Astoria, OR

7:59 PM PDT on May 25, 2017 (GMT -0700)
Astoria Regional

Weather History for KAST - March, 2013

Change the Weather History Date:

Friday, March 22, 2013

  Actual Average Record
Temperature  
Mean Temperature 41 °F 47 °F  
Max Temperature 47 °F 54 °F 65 °F (1915)
Min Temperature 34 °F 40 °F 28 °F (1966)
Degree Days  
Heating Degree Days 24 18  
Month to date heating degree days 442 418  
Since 1 July heating degree days 3822 3760  
Cooling Degree Days 0 0  
Month to date cooling degree days 0 0  
Year to date cooling degree days 0 0  
Moisture  
Dew Point 33 °F    
Average Humidity 73    
Maximum Humidity 92    
Minimum Humidity 53    
Precipitation  
Precipitation 0.09 in 0.24 in 2.20 in (1993)
Month to date precipitation 3.82 5.43  
Year to date precipitation 19.18 22.82  
Snow  
Snow 0.00 in - - ()
Month to date snowfall 0.0  
Snow Depth 0.00 in    
Sea Level Pressure  
Sea Level Pressure 30.34 in    
Wind  
Wind Speed 6 mph (WNW)    
Max Wind Speed 26 mph    
Max Gust Speed 32 mph    
Visibility 10 miles    
Events Rain    
T = Trace of Precipitation, MM = Missing Value Source: NWS Daily Summary

Daily Weather History Graph

Daily Weather History Graph

Search for Another Location

Airport or City:

Trip Planner

Search our weather history database for the weather conditions in past years. The results will help you decide how hot, cold, wet, or windy it might be!

Date:

Astronomy

Mar. 22, 2013 Rise Set
Actual Time 7:13 AM PDT 7:31 PM PDT
Civil Twilight 6:44 AM PDT 8:01 PM PDT
Nautical Twilight 6:08 AM PDT 8:36 PM PDT
Astronomical Twilight 5:32 AM PDT 9:13 PM PDT
Moon 2:51 PM PDT (3/22) 4:31 AM PDT (3/22)
Length of Visible Light 13h 17m
Length of Day
12h 17m
Waxing Gibbous, 78% of the Moon is Illuminated
Mar 22
Waxing Gibbous
Mar 27
Full
Apr 2
Last Quarter
Apr 10
New
Apr 18
First Quarter

Hourly Weather History & Observations

Time (PDT) Temp. Windchill Dew Point Humidity Pressure Visibility Wind Dir Wind Speed Gust Speed Precip Events Conditions
12:55 AM 39.9 °F 35.1 °F 32.0 °F 73% 30.30 in 10.0 mi WNW 6.9 mph - N/A   Partly Cloudy
1:25 AM 35.6 °F 27.1 °F 32.0 °F 87% 30.31 in 4.0 mi NW 12.7 mph 32.2 mph 0.02 in Rain Rain
1:48 AM 35.6 °F 32.8 °F 32.0 °F 87% 30.30 in 10.0 mi SSW 3.5 mph - 0.03 in   Scattered Clouds
1:55 AM 35.1 °F 31.0 °F 32.0 °F 89% 30.30 in 10.0 mi South 4.6 mph - 0.03 in   Scattered Clouds
2:55 AM 36.0 °F 31.1 °F 32.0 °F 86% 30.31 in 10.0 mi WSW 5.8 mph - 0.02 in   Clear
3:55 AM 36.0 °F - 32.0 °F 86% 30.30 in 10.0 mi Calm Calm - N/A   Scattered Clouds
4:55 AM 35.1 °F 30.1 °F 33.1 °F 92% 30.30 in 10.0 mi ESE 5.8 mph - N/A   Mostly Cloudy
5:55 AM 35.1 °F 30.1 °F 33.1 °F 92% 30.31 in 10.0 mi South 5.8 mph - 0.00 in   Partly Cloudy
6:55 AM 35.1 °F 31.0 °F 32.0 °F 89% 30.31 in 10.0 mi East 4.6 mph - 0.02 in   Mostly Cloudy
7:55 AM 35.1 °F 32.2 °F 33.1 °F 92% 30.32 in 10.0 mi South 3.5 mph - 0.00 in   Mostly Cloudy
8:55 AM 39.0 °F - 36.0 °F 89% 30.33 in 10.0 mi Calm Calm - 0.00 in   Mostly Cloudy
9:55 AM 41.0 °F 37.1 °F 37.0 °F 86% 30.34 in 10.0 mi SE 5.8 mph - N/A Rain Light Rain
10:55 AM 44.1 °F 38.1 °F 37.9 °F 79% 30.34 in 10.0 mi ENE 11.5 mph - 0.98 in   Mostly Cloudy
11:55 AM 44.1 °F 39.0 °F 37.0 °F 76% 30.35 in 10.0 mi NNE 9.2 mph - 0.00 in   Mostly Cloudy
12:55 PM 44.1 °F 40.8 °F 34.0 °F 68% 30.35 in 10.0 mi North 5.8 mph - 0.00 in   Overcast
1:21 PM 42.8 °F 37.0 °F 35.6 °F 76% 30.36 in 10.0 mi North 10.4 mph - N/A   Overcast
1:55 PM 44.1 °F 40.8 °F 36.0 °F 73% 30.36 in 10.0 mi Variable 5.8 mph - 0.00 in Rain Light Rain
2:41 PM 44.6 °F 38.8 °F 30.2 °F 57% 30.35 in 10.0 mi WNW 11.5 mph - 0.00 in   Scattered Clouds
2:55 PM 44.1 °F 37.1 °F 32.0 °F 63% 30.35 in 10.0 mi NW 15.0 mph - 0.00 in   Partly Cloudy
3:55 PM 46.0 °F 39.9 °F 32.0 °F 58% 30.35 in 10.0 mi WNW 13.8 mph - N/A   Partly Cloudy
4:55 PM 46.9 °F - 30.9 °F 54% 30.36 in 10.0 mi NW 13.8 mph - N/A   Scattered Clouds
5:55 PM 45.0 °F 38.2 °F 30.0 °F 56% 30.36 in 10.0 mi NW 15.0 mph - N/A   Partly Cloudy
6:55 PM 42.1 °F 38.4 °F 30.9 °F 65% 30.36 in 10.0 mi WNW 5.8 mph - N/A   Clear
7:55 PM 39.9 °F 37.8 °F 30.9 °F 70% 30.36 in 10.0 mi West 3.5 mph - N/A   Clear
8:55 PM 37.0 °F 34.5 °F 30.9 °F 79% 30.38 in 10.0 mi West 3.5 mph - N/A   Clear
9:55 PM 36.0 °F - 32.0 °F 86% 30.38 in 10.0 mi Calm Calm - N/A   Partly Cloudy
10:55 PM 36.0 °F 32.1 °F 32.0 °F 86% 30.39 in 10.0 mi ESE 4.6 mph - N/A   Scattered Clouds
11:55 PM 35.1 °F 32.2 °F 32.0 °F 89% 30.38 in 9.0 mi ESE 3.5 mph - N/A   Clear